Whidbey Island, WA

1:23 PM PDT on May 28, 2017 (GMT -0700)
Whidbey Island Naval Air Station

Weather History for KNUW - December, 2012

Change the Weather History Date:

Thursday, December 6, 2012

  Actual Average Record
Temperature  
Mean Temperature 43 °F -  
Max Temperature 44 °F 45 °F 54 °F (2015)
Min Temperature 42 °F 36 °F 23 °F (2013)
Degree Days  
Heating Degree Days 22    
Moisture  
Dew Point 39 °F    
Average Humidity 83    
Maximum Humidity 89    
Minimum Humidity 79    
Precipitation  
Precipitation 0.11 in - - ()
Sea Level Pressure  
Sea Level Pressure 30.09 in    
Wind  
Wind Speed 10 mph (SSW)    
Max Wind Speed 17 mph    
Max Gust Speed -    
Visibility 9 miles    
Events Rain    
Averages and records for this station are not official NWS values.
T = Trace of Precipitation, MM = Missing Value Source: NWS Daily Summary

Daily Weather History Graph

Daily Weather History Graph

Search for Another Location

Airport or City:

Trip Planner

Search our weather history database for the weather conditions in past years. The results will help you decide how hot, cold, wet, or windy it might be!

Date:

Astronomy

Dec. 06, 2012 Rise Set
Actual Time 7:47 AM PST 4:16 PM PST
Civil Twilight 7:11 AM PST 4:52 PM PST
Nautical Twilight 6:31 AM PST 5:32 PM PST
Astronomical Twilight 5:53 AM PST 6:10 PM PST
Moon No Moon Rise 12:14 PM PST (12/6)
Length of Visible Light 9h 41m
Length of Day
8h 29m
Waning Gibbous, 48% of the Moon is Illuminated
Dec 6
Waning Gibbous
Dec 13
New
Dec 19
First Quarter
Dec 28
Full
Jan 4
Last Quarter

Hourly Weather History & Observations

Time (PST) Temp. Windchill Dew Point Humidity Pressure Visibility Wind Dir Wind Speed Gust Speed Precip Events Conditions
12:56 AM 44.1 °F 38.1 °F 37.9 °F 79% 30.15 in 10.0 mi SSE 11.5 mph - N/A   Mostly Cloudy
1:56 AM 44.1 °F 39.5 °F 37.9 °F 79% 30.15 in 10.0 mi SSE 8.1 mph - N/A   Mostly Cloudy
2:56 AM 44.1 °F 39.0 °F 37.9 °F 79% 30.15 in 10.0 mi SSE 9.2 mph - N/A   Overcast
3:56 AM 42.1 °F 37.7 °F 37.0 °F 82% 30.13 in 10.0 mi ESE 6.9 mph - N/A   Overcast
4:56 AM 43.0 °F 38.2 °F 37.9 °F 82% 30.12 in 10.0 mi SE 8.1 mph - N/A   Overcast
5:56 AM 43.0 °F 37.7 °F 37.9 °F 82% 30.09 in 10.0 mi ESE 9.2 mph - N/A   Overcast
6:41 AM 42.8 °F 38.0 °F 37.4 °F 81% 30.08 in 10.0 mi ESE 8.1 mph - N/A   Overcast
6:56 AM 43.0 °F 38.2 °F 37.9 °F 82% 30.08 in 10.0 mi ESE 8.1 mph - 0.00 in Rain Light Rain
7:56 AM 43.0 °F 37.2 °F 37.9 °F 82% 30.08 in 9.0 mi SSE 10.4 mph - 0.00 in Rain Light Rain
8:56 AM 43.0 °F 37.2 °F 39.0 °F 86% 30.08 in 8.0 mi SSE 10.4 mph - 0.01 in Rain Light Rain
9:56 AM 44.1 °F 38.1 °F 39.0 °F 82% 30.07 in 8.0 mi SSE 11.5 mph - 0.00 in Rain Light Rain
10:56 AM 43.0 °F 36.8 °F 39.9 °F 89% 30.09 in 7.0 mi South 11.5 mph - 0.03 in Rain Light Rain
11:38 AM 44.6 °F 41.4 °F 39.2 °F 81% 30.06 in 8.0 mi SSW 5.8 mph - 0.00 in Rain Light Rain
11:56 AM 44.1 °F 40.8 °F 39.9 °F 85% 30.07 in 7.0 mi SW 5.8 mph - 0.00 in Rain Light Rain
12:41 PM 42.8 °F 37.5 °F 39.2 °F 87% 30.06 in 6.0 mi WSW 9.2 mph - 0.01 in Rain Light Rain
12:56 PM 43.0 °F 37.7 °F 39.0 °F 86% 30.07 in 7.0 mi SW 9.2 mph - 0.02 in Rain Light Rain
1:41 PM 44.6 °F 38.1 °F 39.2 °F 81% 30.05 in 8.0 mi WSW 13.8 mph - 0.00 in Rain Light Rain
1:56 PM 44.1 °F 37.1 °F 39.0 °F 82% 30.06 in 8.0 mi WSW 15.0 mph - 0.01 in Rain Light Rain
2:56 PM 44.1 °F 38.1 °F 39.0 °F 82% 30.06 in 8.0 mi West 11.5 mph - 0.01 in Rain Light Rain
3:56 PM 43.0 °F 36.0 °F 39.0 °F 86% 30.06 in 9.0 mi West 13.8 mph - 0.02 in Rain Light Rain
4:56 PM 44.1 °F 38.1 °F 39.0 °F 82% 30.07 in 9.0 mi WSW 11.5 mph - 0.01 in Rain Light Rain
5:56 PM 44.1 °F 37.7 °F 39.0 °F 82% 30.08 in 9.0 mi West 12.7 mph - 0.00 in Rain Light Rain
6:27 PM 44.6 °F 38.8 °F 39.2 °F 81% 30.07 in 10.0 mi West 11.5 mph - 0.00 in   Overcast
6:56 PM 44.1 °F 38.1 °F 37.9 °F 79% 30.08 in 10.0 mi West 11.5 mph - 0.00 in   Mostly Cloudy
7:56 PM 44.1 °F 36.8 °F 39.0 °F 82% 30.09 in 10.0 mi West 16.1 mph - N/A   Mostly Cloudy
8:56 PM 44.1 °F 39.0 °F 37.9 °F 79% 30.10 in 10.0 mi WSW 9.2 mph - N/A   Mostly Cloudy
9:56 PM 43.0 °F 37.2 °F 37.9 °F 82% 30.10 in 10.0 mi South 10.4 mph - N/A   Scattered Clouds
10:56 PM 43.0 °F 35.4 °F 39.0 °F 86% 30.08 in 10.0 mi SSE 16.1 mph - 0.00 in Rain Light Rain
11:56 PM 42.1 °F 33.9 °F 37.9 °F 85% 30.07 in 7.0 mi SE 17.3 mph - 0.00 in   Overcast